Date String (YYYY-MM-DD hh:mm:ss) UTC,Instrument flags,absolute air pressure of the measurement (hPa),sample flow rate (lpm),inlet stack bypass flow (lpm),air temperature of the measurement (°C),ambient temperature measured by the external sensor (°C),aerosol sample conditioner tube jacket temperature (°C),OPC LED temperature (°C),internal box temperature (°C),relative humidity of the measurement (%),span deviation,mass concentration of particles derived from Lorenz-Mie calculation of OPC scattering (μg/m³),mass concentration of particles derived from Lorenz-Mie calculation of OPC scattering (μg/m³),mass concentration of particles derived from Lorenz-Mie calculation of OPC scattering (μg/m³)
DateTimeUTC,F1_M11,P_M11,Q1_M11,Q2_M11,T1_M11,T2_M11,T3_M11,T4_M11,T5_M11,U1_M11,ZSPAN_M11,X0_M11,X2_M11,X1_M11
2024-04-27 01:00:00,SystemResetWarning,0818.6,5.00,000.00,025.4,024.6,000.0,033.9,027.2,026.8,0000.0,0010.20,0002.85,0001.78
2024-04-27 01:01:00,SystemResetWarning,0818.6,5.01,000.00,025.4,024.6,000.0,033.9,027.1,026.8,0000.0,0010.44,0002.92,0001.78
2024-04-27 01:02:00,SystemResetWarning,0818.6,5.00,000.00,025.3,024.5,000.0,033.9,027.1,026.6,0000.0,0010.58,0002.94,0001.79
2024-04-27 01:03:00,SystemResetWarning,0818.6,5.00,000.00,025.3,024.5,000.0,033.9,027.1,026.6,0000.0,0009.93,0002.90,0001.78
2024-04-27 01:04:00,SystemResetWarning,0818.6,4.99,000.00,025.3,024.5,000.0,033.9,027.1,026.9,0000.0,0009.38,0002.82,0001.73
2024-04-27 01:05:00,SystemResetWarning,0818.6,4.99,000.00,025.3,024.5,000.0,033.9,027.1,027.4,0000.0,0008.31,0002.81,0001.74
2024-04-27 01:06:00,SystemResetWarning,0818.7,4.99,000.00,025.3,024.4,000.0,033.9,027.1,027.7,0000.0,0008.27,0002.84,0001.76
2024-04-27 01:07:00,SystemResetWarning,0818.7,5.01,000.00,025.3,024.4,000.0,033.9,027.1,027.8,0000.0,0008.37,0002.86,0001.79
2024-04-27 01:08:00,SystemResetWarning,0818.7,5.01,000.00,025.3,024.5,000.0,033.9,027.1,028.1,0000.0,0008.46,0002.93,0001.80
2024-04-27 01:09:00,SystemResetWarning,0818.7,5.01,000.00,025.3,024.4,000.0,033.9,027.0,028.5,0000.0,0008.40,0002.92,0001.81
2024-04-27 01:10:00,SystemResetWarning,0818.8,5.00,000.00,025.3,024.4,000.0,033.9,027.0,028.3,0000.0,0007.13,0003.04,0001.86
2024-04-27 01:11:00,SystemResetWarning,0818.9,4.98,000.00,025.3,024.4,000.0,033.9,027.0,028.3,0000.0,0007.32,0003.11,0001.88
2024-04-27 01:12:00,SystemResetWarning,0818.9,5.00,000.00,025.2,024.4,000.0,033.9,027.0,028.5,0000.0,0007.40,0003.13,0001.87
2024-04-27 01:13:00,SystemResetWarning,0818.8,5.01,000.00,025.2,024.4,000.0,033.9,027.0,028.8,0000.0,0007.49,0003.18,0001.88
2024-04-27 01:14:00,SystemResetWarning,0818.8,5.00,000.00,025.2,024.4,000.0,033.9,027.0,028.8,0000.0,0007.66,0003.25,0001.91
2024-04-27 01:15:00,SystemResetWarning,0819.2,4.99,000.00,025.2,024.4,000.0,033.9,027.0,028.9,0000.0,0007.82,0003.33,0001.93
2024-04-27 01:16:00,SystemResetWarning,0819.1,4.98,000.00,025.2,024.3,000.0,033.8,027.0,029.0,0000.0,0007.94,0003.38,0001.91
2024-04-27 01:17:00,SystemResetWarning,0819.3,5.02,000.00,025.2,024.3,000.0,033.8,027.0,029.0,0000.0,0007.97,0003.41,0001.90
2024-04-27 01:18:00,SystemResetWarning,0819.1,5.01,000.00,025.2,024.3,000.0,033.8,027.0,029.1,0000.0,0007.80,0003.38,0001.88
2024-04-27 01:19:00,SystemResetWarning,0818.9,4.99,000.00,025.2,024.3,000.0,033.8,027.0,029.0,0000.0,0007.73,0003.36,0001.87
2024-04-27 01:20:00,SystemResetWarning,0819.0,4.99,000.00,025.2,024.3,000.0,033.8,026.9,029.1,0000.0,0007.68,0003.33,0001.83
2024-04-27 01:21:00,SystemResetWarning,0819.0,5.00,000.00,025.1,024.3,000.0,033.8,026.9,029.1,0000.0,0007.42,0003.26,0001.78
2024-04-27 01:22:00,SystemResetWarning,0819.0,5.02,000.00,025.1,024.3,000.0,033.8,026.9,029.2,0000.0,0006.75,0003.22,0001.76
2024-04-27 01:23:00,SystemResetWarning,0819.0,4.99,000.00,025.1,024.3,000.0,033.8,026.9,029.2,0000.0,0006.36,0003.20,0001.75
2024-04-27 01:24:00,SystemResetWarning,0819.0,4.99,000.00,025.1,024.2,000.0,033.8,026.9,029.3,0000.0,0006.12,0003.18,0001.72
2024-04-27 01:25:00,SystemResetWarning,0819.1,5.02,000.00,025.1,024.2,000.0,033.8,026.9,029.3,0000.0,0005.93,0003.13,0001.68
2024-04-27 01:26:00,SystemResetWarning,0819.1,5.00,000.00,025.1,024.2,000.0,033.8,026.9,029.7,0000.0,0005.71,0003.05,0001.66
2024-04-27 01:27:00,SystemResetWarning,0819.1,4.99,000.00,025.1,024.2,000.0,033.7,026.9,029.6,0000.0,0005.25,0002.88,0001.64
2024-04-27 01:28:00,SystemResetWarning,0819.1,5.00,000.00,025.1,024.2,000.0,033.7,026.9,029.5,0000.0,0005.11,0002.80,0001.61
2024-04-27 01:29:00,SystemResetWarning,0819.3,5.01,000.00,025.1,024.2,000.0,033.7,026.8,029.5,0000.0,0005.13,0002.79,0001.60
2024-04-27 01:30:00,SystemResetWarning,0819.1,5.01,000.00,025.0,024.2,000.0,033.7,026.8,029.4,0000.0,0005.12,0002.77,0001.59
2024-04-27 01:31:00,SystemResetWarning,0819.2,5.00,000.00,025.0,024.2,000.0,033.7,026.8,029.9,0000.0,0005.04,0002.79,0001.60
2024-04-27 01:32:00,SystemResetWarning,0819.2,4.99,000.00,025.0,024.2,000.0,033.7,026.8,030.0,0000.0,0005.06,0002.80,0001.60
2024-04-27 01:33:00,SystemResetWarning,0819.3,4.99,000.00,025.0,024.2,000.0,033.7,026.8,030.0,0000.0,0005.00,0002.78,0001.60
2024-04-27 01:34:00,SystemResetWarning,0819.3,5.00,000.00,025.0,024.1,000.0,033.7,026.8,029.9,0000.0,0004.85,0002.69,0001.60
2024-04-27 01:35:00,SystemResetWarning,0819.2,5.01,000.00,025.0,024.1,000.0,033.7,026.8,030.1,0000.0,0004.60,0002.59,0001.59
2024-04-27 01:36:00,SystemResetWarning,0819.2,5.00,000.00,025.0,024.1,000.0,033.7,026.8,030.1,0000.0,0005.28,0002.57,0001.59
2024-04-27 01:37:00,SystemResetWarning,0819.3,4.99,000.00,025.0,024.1,000.0,033.7,026.7,030.2,0000.0,0005.53,0002.60,0001.59
2024-04-27 01:38:00,SystemResetWarning,0819.3,4.99,000.00,024.9,024.1,000.0,033.6,026.7,030.2,0000.0,0005.92,0002.64,0001.58
2024-04-27 01:39:00,SystemResetWarning,0819.3,5.01,000.00,024.9,024.1,000.0,033.6,026.7,030.3,0000.0,0005.71,0002.62,0001.58
2024-04-27 01:40:00,SystemResetWarning,0819.3,5.01,000.00,024.9,024.0,000.0,033.6,026.7,030.2,0000.0,0005.66,0002.62,0001.58
2024-04-27 01:41:00,SystemResetWarning,0819.3,5.01,000.00,024.9,024.0,000.0,033.6,026.7,030.4,0000.0,0005.64,0002.64,0001.60
2024-04-27 01:42:00,SystemResetWarning,0819.3,4.99,000.00,024.9,024.0,000.0,033.6,026.7,030.4,0000.0,0005.88,0002.68,0001.61
2024-04-27 01:43:00,SystemResetWarning,0819.4,4.99,000.00,024.9,024.0,000.0,033.6,026.7,030.3,0000.0,0006.05,0002.64,0001.61
2024-04-27 01:44:00,SystemResetWarning,0819.4,5.00,000.00,024.9,024.0,000.0,033.6,026.7,030.1,0000.0,0005.91,0002.60,0001.61
2024-04-27 01:45:00,SystemResetWarning,0819.4,5.01,000.00,024.9,024.0,000.0,033.6,026.6,029.9,0000.0,0006.38,0002.61,0001.61
2024-04-27 01:46:00,SystemResetWarning,0819.4,5.01,000.00,024.8,024.0,000.0,033.5,026.6,029.9,0000.0,0007.43,0002.59,0001.62
2024-04-27 01:47:00,SystemResetWarning,0819.5,5.01,000.00,024.8,024.0,000.0,033.5,026.6,029.9,0000.0,0007.07,0002.61,0001.63
2024-04-27 01:48:00,SystemResetWarning,0819.5,5.00,000.00,024.8,023.9,000.0,033.5,026.6,029.9,0000.0,0006.82,0002.61,0001.64
2024-04-27 01:49:00,SystemResetWarning,0819.6,5.00,000.00,024.8,024.0,000.0,033.5,026.6,029.7,0000.0,0006.18,0002.52,0001.63
2024-04-27 01:50:00,SystemResetWarning,0819.7,5.00,000.00,024.8,024.0,000.0,033.5,026.6,029.4,0000.0,0006.28,0002.56,0001.64
2024-04-27 01:51:00,SystemResetWarning,0819.9,4.99,000.00,024.8,024.0,000.0,033.5,026.6,029.4,0000.0,0006.13,0002.51,0001.65
2024-04-27 01:52:00,SystemResetWarning,0819.7,5.00,000.00,024.8,024.0,000.0,033.5,026.6,029.5,0000.0,0006.19,0002.52,0001.64
2024-04-27 01:53:00,SystemResetWarning,0819.6,5.02,000.00,024.8,024.0,000.0,033.5,026.6,029.5,0000.0,0005.80,0002.43,0001.63
2024-04-27 01:54:00,SystemResetWarning,0819.7,5.00,000.00,024.8,024.0,000.0,033.5,026.7,029.4,0000.0,0005.52,0002.40,0001.63
2024-04-27 01:55:00,SystemResetWarning,0820.0,4.99,000.00,024.8,024.0,000.0,033.5,026.7,029.3,0000.0,0005.59,0002.41,0001.63
2024-04-27 01:56:00,SystemResetWarning,0820.0,4.99,000.00,024.9,024.1,000.0,033.5,026.7,029.3,0000.0,0005.53,0002.41,0001.65
2024-04-27 01:57:00,SystemResetWarning,0819.9,5.02,000.00,024.9,024.1,000.0,033.5,026.7,029.3,0000.0,0004.45,0002.48,0001.64
2024-04-27 01:58:00,SystemResetWarning,0819.7,5.00,000.00,024.9,024.1,000.0,033.5,026.8,029.3,0000.0,0004.57,0002.52,0001.64
2024-04-27 01:59:00,SystemResetWarning,0819.8,4.99,000.00,024.9,024.2,000.0,033.5,026.8,029.2,0000.0,0004.53,0002.51,0001.64
